Погода Зея

Погода Зея : погода сейчас, прогноз погоды и архив. Всё, что Вы хотите узнать о погоде Зея!

Хотите узнать прогноз погоды Зея? Тогда Вам сюда: Погода Зея

Поиск расширенной информации на нашем сайте:

Другие новости

Новости СМИ2

Главная страница сайта

Новости сайта

02.10.2013

Напоминаем, что на нашем новом сайте вы можете получить высокодетализированные прогнозы погоды по пунктам России, СНГ и мира (включающие важные для авиации метеовеличины, такие как направление и скорость ветра, видимость, явления погоды, количество и форма облачности, нижняя и верхняя граница облачности), а также ознакомиться с разнообразными материалами по авиационной метеорологии и подборкой полезных ссылок на эту тему.

Сайт Метеоцентр.Азия посвящён разработке технологий оптимизации авиаметеорологического обслуживания, включая проектирование и перспективное создание нескольких автоматизированных авиаметеорологических систем:
- система выпуска высокодетальных прогностических карт явлений погоды для нижнего воздушного пространства по России и ближнему зарубежью;
- система верификации прогнозов TAF (выпускаемых синоптиками официальных АМСГ РФ и ближнего зарубежья) и AUTOTAF (выпускаемых сайтом Метеоцентр.Азия) - выявление ошибок, онлайн-сопоставление с фактической погодой METAR, автоматическое внесение коррективов в прогнозы при резком отклонении фактической погоды от прогноза, подсчёт оправдываемости прогнозов по элементам и в целом;
- система обработки, анализа и отображения авиаметеорологической информации для применения провайдерами метеорологической информации.

Рекомендуем: MegaStroyka - строительство онлайн

Погода Зея - сегодня

Время (UTC), дата Ветер
(°,м/с) 
Видим.   Явления Облачность Т
(°С)
Тd
(°С)
f(%) Тe
(°С)
Pmin
(гПа)
dP
(гПа)
Po
(мм)
O2
(г/м3)
Тmin Tmax R s Состояние
почвы
21 23.04.17 060 (СВ) 20000 м  {ливн. осадки}  10/10 600 м кучево-дожд. 
[Cb cap]
+2.3 -0.1 84 +3  1016.6  0.7  741  296           
00 24.04.17 030 (СВ) 20000 м  {ливн. осадки}  10/5 600 м средняя 
[Sc|Ac As]
+4.6 -0.5 69 +3  1017.1  0.7  741  294  +1.7      влажная 
03 24.04.17 060 (СВ) 20000 м    10/3 600 м верхняя 
[Cu hum|Cs]
+6.9 -2.2 52 +6  1016.6  -0.2  741  292           
06 24.04.17 050 (СВ) 20000 м    10/4 600 м верхняя 
[Cu hum|Cs]
+9.1 -3.9 40 +9  1016.3  -0.2  741  289           
09 24.04.17 040 (СВ) 20000 м    10/3 600 м средняя 
[Frnb|As op]
+7.7 -4.7 41 +8  1016.1  -0.3  741  291           
12 24.04.17 100 (В) 20000 м    10/5 600 м средняя 
[Frnb|As op]
+6.3 -4.1 47 +7  1017.3  742  293    +9.2       
15 24.04.17 100 (В) 20000 м    10/0 средняя 
[As op]
+5 -3.8 53 +5  1017.5  0.1  742  294           
18 24.04.17 040 (СВ) 20000 м    10/0 средняя 
[As op]
+2.1 -2 74 +1  1017.8  742  297           
21 24.04.17 070 (В) 20000 м    10/10 600 м кучево-дожд. 
[Cb cap]
+1.8 -2.7 72 +1  1017.6  -0.2  742  297           
00 25.04.17 050 (СВ) 20000 м    10/8 600 м кучево-дожд., верхняя 
[Cb cap|Ci sp]
+4.5 -3.3 57 +3  1017.7  0.4  742  294  +1.8        влажная 
03 25.04.17 060 (СВ) 20000 м    10/4 600 м верхняя 
[Cu med, cong|Ci sp]
+6.3 -2.8 52 +5  1017.2  -0.4  742  292           
06 25.04.17 070 (В) 20000 м    10/3 600 м верхняя 
[Cu med, cong|Ci sp]
+9.4 -3.5 40 +9  1015.9  -0.9  741  289           
09 25.04.17 050 (СВ) 20000 м    3/1 600 м верхняя 
[Cu med, cong|Ci sp]
+9.2 -6.3 33 +9  1014.5  -1.4  740  289           
12 25.04.17 тихо ()   20000 м    10/1 600 м средняя, верхняя 
[Sc|Ac trans|Ci sp]
+5.2 -4.5 50 +5  1015.1  0.2  740  293    +9.9       
15 25.04.17 тихо ()   20000 м    10/0 верхняя 
[Ci sp]
+1.5 -3.7 68 +2  1015.3  -0.2  740  297           
18 25.04.17 050 (СВ) 20000 м    10/0 средняя, верхняя 
[Ac trans|Ci sp]
+3.4 -5.3 53 +4  1014.4  -0.7  739  295           
21 25.04.17 050 (СВ) 20000 м    4/0 средняя, верхняя 
[Ac trans|Ci sp]
+0.6 -5.6 63 +1  1014.6  -0.1  739  298           
00 26.04.17 060 (СВ) 20000 м    ясно 
+9.3 -5.5 35 +9  1013.3  -0.3  739  289  +0.5        влажная 
03 26.04.17 030 (СВ) 20000 м    10/5 600 м верхняя 
[Cu hum|Ci fib]
+12.9 -6.7 25 +13  1011.4  -1.6  738  285           
06 26.04.17 360 (С) 20000 м    8/3 600 м верхняя 
[Cu med, cong|Ci sp]
+14.7 -10.3 17 +15  1008.3  -2.8  736  282           
09 26.04.17 010 (С) 20000 м    10/4 600 м верхняя 
[Sc|Ci sp]
+14 -11.1 16 +15  1006.8  -1.5  735  283           
12 26.04.17 020 (С) 20000 м    10/3 600 м верхняя 
[Sc|Ci sp]
+10.7 -9.3 24 +10  1007.6  0.5  735  286    +15.4       
15 26.04.17 350 (С) 20000 м    10/0 верхняя 
[Ci sp]
+7.9 -7.9 32 +9  1007.5  -0.4  735  288           
18 26.04.17 020 (С) 20000 м    10/0 верхняя 
[Ci sp]
+6 -4.1 48 +7  1006.7  -1  734  290           
21 26.04.17 тихо ()   20000 м    ясно 
+0.1 -4.4 72 1006.4  -0.9  733  296           
Время (UTC), дата Ветер
(°,м/с) 
Видим.   Явления Облачность Т
(°С)
Тd
(°С)
f(%) Тe
(°С)
Pmin
(гПа)
dP
(гПа)
Po
(мм)
O2
(г/м3)
Тmin Tmax R s Состояние
почвы

Для получения пояснительной информации подведите курсор к названию столбца.

ПОГОДА Зея - архив

Всё, что Вы хотите узнать о погоде Зея - удобно и подробно!

Выберите нужную дату (начиная с 1 января 2015* года) и нажмите кнопку "Найти".
Будут отображены архивные сводки погоды по пункту Зея, начиная с указанной даты.


Отображать данные в формате CSV (для использования в таблицах Excel)


Внимание! Наш архив погоды предназначен исключительно для личного некоммерческого использования в познавательных целях. Если Вам необходимы официальные справки о состоянии погоды (для производственных, юридических, коммерческих и т.п. целей), обращайтесь в органы Росгидромета.

*Примечание: данная дата относится к архиву по метеостанциям СССР (Россия, СНГ, Балтия).
Архив по метеостанциям Зарубежной Европы и Азии (кроме Китая) хранится 10 дней, по другим регионам земного шара (Китай, Африка, Америка, Австралия, Океания) - 1 день.

Зея - район местоположения метеостанции


Название, широта, долгота, высота метеостанции:
Зея 53.7°ш. 127.3°д. 229 м над ур. моря [Российская Федерация]

Дополнительная информация

В oтличие oт бoльшинства пoгoдных сайтoв мы публикуем пoдрoбную метеoинфoрмацию в детальнoм прoфессиoнальнoм фoрмате.

Характеристики температуры и влажнoсти вoздуха измеряются на высoте 2 м в тени вдали oт зданий и деревьев.
Скoрoсть ветра измеряется на высoте 10 м (на урoвне рoста челoвека скoрoсть ветра ниже в 1.5-2 раза). Если метеoстанция нахoдится в гoрoде или в лесу, тo скoрoсть ветра занижена на 2-4 м/с пo сравнению с oткрытым местoм. Скoрoсть ветра над акватoриями крупных рек и oзёр, а также на вершинах хoлмoв на 2-5 м/с выше, чем в oбычных услoвиях.
Атмoсфернoе давление в разных тoчках местнoсти мoжет значительнo oтличаться oт давления на метеoстанции, в зависимoсти oт услoвий рельефа (при пoдъёме на 10 м давление пoнижается примернo на 1 мм рт.ст.).